• Join FlightAware (Why Join?)
  • Login
  • US Flag 
05:37AM EDT


 

Airport Tracker/Info


-or-


 

Live Flight TrackerFlight Track Log ✈ ASQ4577 ✈ 16-Jun-2013 ✈ KCLE - KALB

Flight Track Log - Related Links

Times and Time Zones

All times are in EDT time to prevent confusion due to time zone crossing. See the ASQ4577 flight status page for this flight to view local times or setup timezone preferences in your user account.

Time Position Orientation Groundspeed Altitude Reporting Facility
EDT Latitude Longitude Course Direction KTS MPH feet Rate Location/Type
06:57PM 41.3939 -81.8869 75° East 158 182 2,000  Level Cleveland Center
06:58PM 41.3850 -81.9225 252° West 174 200 3,500 2,280 Climbing Cleveland Center
06:59PM 41.3761 -81.9778 258° West 212 244 5,600 2,100 Climbing Cleveland Center
07:00PM 41.6771 -81.5729 37° Northeast  Level FlightAware Approximate
07:00PM 41.4133 -82.0117 326° Northwest 254 292 7,600  Level Cleveland Center
07:01PM 41.7703 -81.4798 37° Northeast  Level FlightAware Approximate
07:01PM 41.4683 -81.9381 45° Northeast 306 352 9,500  Level Cleveland Center
07:02PM 41.8366 -81.3669 75° East  Level FlightAware Approximate
07:02PM 41.5297 -81.8481 48° Northeast 351 404 10,700  Level Cleveland Center
07:03PM 41.5997 -81.7494 46° Northeast 360 414 11,800 600 Climbing Cleveland Center
07:04PM 41.6736 -81.6478 46° Northeast 407 468 12,000 60 Climbing Cleveland Center
07:05PM 41.7494 -81.5433 46° Northeast 395 455 12,000 540 Level Cleveland Center
07:06PM 41.8192 -81.4469 46° Northeast 395 455 13,100 1,380 Climbing Cleveland Center
07:07PM 41.8556 -81.3108 70° East 375 432 14,800 1,440 Climbing Cleveland Center
07:08PM 41.8792 -81.1661 78° East 387 445 16,000 1,200 Climbing Cleveland Center
07:09PM 41.9028 -81.0128 78° East 406 467 17,300 1,200 Climbing Cleveland Center
07:10PM 41.9264 -80.8622 78° East 415 478 18,500 1,140 Climbing Cleveland Center
07:11PM 41.9536 -80.6919 78° East 415 478 19,600 1,080 Climbing Cleveland Center
07:12PM 41.9808 -80.5300 77° East 428 493 20,700 1,020 Climbing Cleveland Center
07:13PM 42.0056 -80.3625 79° East 445 512 21,700 960 Climbing Cleveland Center
07:14PM 42.0303 -80.1947 79° East 452 520 22,700 1,080 Climbing Cleveland Center
07:15PM 42.0567 -80.0239 78° East 460 529 23,900 1,020 Climbing Cleveland Center
07:16PM 42.0828 -79.8558 78° East 460 529 24,800 1,140 Climbing Cleveland Center
07:17PM 42.1086 -79.6792 79° East 460 529 26,200 1,380 Climbing Cleveland Center
07:18PM 42.1342 -79.5081 79° East 467 537 27,700 1,200 Climbing Cleveland Center
07:19PM 42.1597 -79.3367 79° East 467 537 28,700 840 Climbing Cleveland Center
07:20PM 42.1825 -79.1625 80° East 467 537 29,400 780 Climbing Cleveland Center
07:21PM 42.2053 -78.9797 80° East 473 544 30,300 780 Climbing Cleveland Center
07:22PM 42.2278 -78.8139 80° East 489 563 31,000 300 Climbing Cleveland Center
07:23PM 42.2539 -78.6222 80° East 502 578 31,000  Level Cleveland Center
07:24PM 42.2794 -78.4167 80° East 527 606 31,000  Level Cleveland Center
07:25PM 42.3044 -78.2136 80° East 546 628 31,000  Level Cleveland Center
07:26PM 42.3272 -78.0106 81° East 546 628 31,000 -600 Level Cleveland Center
07:27PM 42.3497 -77.8100 81° East 541 623 29,900 -1,020 Descending Cleveland Center
07:28PM 42.3742 -77.6150 80° East 536 617 29,000 -360 Descending Cleveland Center
07:30PM 42.4186 -77.2192 81° East 561 646 29,000  Level Boston Center
07:31PM 42.4422 -76.9986 82° East 546 628 29,000  Level Boston Center
07:32PM 42.4647 -76.7975 81° East 536 617 29,000  Level Boston Center
07:33PM 42.4869 -76.5936 82° East 536 617 29,000  Level Boston Center
07:34PM 42.5089 -76.3919 82° East 536 617 29,000  Level Boston Center
07:35PM 42.5306 -76.1850 82° East 541 623 29,000  Level Boston Center
07:36PM 42.5494 -75.9803 83° East 541 623 29,000 -360 Level Boston Center
07:37PM 42.5756 -75.7336 82° East 546 628 28,300 -1,560 Descending Boston Center
07:38PM 42.5939 -75.5314 83° East 546 628 25,900 -2,760 Descending Boston Center
07:39PM 42.6136 -75.3378 82° East 533 613 22,800 -3,000 Descending Boston Center
07:40PM 42.6469 -75.1669 75° East 499 574 20,000 -2,700 Descending Boston Center
07:41PM 42.6922 -75.0108 68° East 460 529 17,500 -2,640 Descending Boston Center
07:42PM 42.7306 -74.8767 69° East 433 498 15,100 -2,640 Descending Boston Center
07:43PM 42.7714 -74.7256 70° East 421 484 12,600 -2,040 Descending Boston Center
07:44PM 42.8075 -74.5825 71° East 399 459 11,100 -840 Descending Boston Center
07:45PM 42.8372 -74.4392 74° East 356 410 10,900 -660 Descending Boston Center
07:46PM 42.8139 -74.3450 109° East 301 346 9,800 -1,620 Descending Boston Center
07:47PM 42.7592 -74.2414 126° Southeast 312 359 7,800 -1,740 Descending Boston Center
07:48PM 42.7106 -74.1494 126° Southeast 300 345 6,300 -1,380 Descending Boston Center
07:49PM 42.6661 -74.0581 123° Southeast 284 327 5,100 -1,020 Descending Boston Center
07:50PM 42.6064 -74.0056 147° Southeast 266 306 4,300 -840 Descending Boston Center
07:51PM 42.5531 -73.9367 136° Southeast 273 314 3,500 -840 Descending Boston Center
07:52PM 42.5875 -73.8614 58° Northeast 235 270 2,700 -840 Descending Boston Center